Regional Weather Roundup
Issued by NWS

Home | Current Version | Previous Version | Text Only | Print | Product List | Glossary Off
Versions: 1 2 3 4 5 6 7 8 9 10 11 12 13 14 15 16 17 18 19 20 21 22 23 24 25 26 27 28 29 30 31 32 33 34 35 36 37 38 39 40 41 42 43 44 45 46 47 48 49 50

000
ASUS45 KSLC 031610
RWRUT

UTAH REGIONAL WEATHER ROUNDUP
NATIONAL WEATHER SERVICE SALT LAKE CITY UT
900 AM MST SAT DEC 03 2016

UTZ001>011-023>025-031700-

NORTHERN UTAH

CITY           SKY/WX    TMP DP  RH WIND       PRES   REMARKS
BRIGHAM CITY     N/A     32  20  63 S7        30.30S WCI  25
HILL AFB       CLOUDY    24  16  72 SE9       30.28R WCI  14
LOGAN          CLOUDY   N/A N/A N/A CALM      30.27S
OGDEN          CLOUDY    26  17  68 S7        30.28S WCI  18
SALT LAKE CITY CLOUDY    29  19  66 SE9       30.30R WCI  20
TOOELE VALLEY  CLOUDY    28  23  80 CALM      30.31R
WENDOVER       CLOUDY    27  18  69 NE5       30.30R WCI  21
HEBER CITY     CLOUDY    18  12  79 W3        30.27S
WEST JORDAN    CLOUDY    27  23  85 S8        30.30R WCI  19

$$

UTZ011>015-024>027-031700-

CENTRAL/NORTHEAST UTAH

CITY           SKY/WX    TMP DP  RH WIND       PRES   REMARKS
PROVO AIRPORT  CLOUDY    24  17  74 SE8       30.33R WCI  15
MOAB/CANYONLAN SUNNY     29  18  63 CALM      30.22R
DELTA          CLOUDY    19  18  93 NE6       30.32R WCI  11
PRICE          SUNNY     24  10  55 CALM      30.18R
RICHFIELD      MOSUNNY   18  12  79 S3        30.29R
ROOSEVELT      SUNNY     23  14  68 NE3       30.26S
VERNAL         CLOUDY    22  15  75 CALM      30.23S

$$

UTZ013>016-019>022-027-031700-

SOUTHERN UTAH

CITY           SKY/WX    TMP DP  RH WIND       PRES   REMARKS
BRYCE CANYON   NOT AVBL
CEDAR CITY     SUNNY     18  13  80 NW3       30.22F
MILFORD        SUNNY     17  11  77 S7        30.28R WCI   8
ST GEORGE      MOSUNNY   34  18  51 CALM      30.27F
HANKSVILLE     SUNNY     23  16  74 CALM      30.26S
KANAB          SUNNY     32  10  40 N9        30.26R WCI  24
BLANDING       SUNNY     29  18  62 NE5       30.23S WCI  24

$$

REGIONAL REPORTS     COLORADO/ARIZONA

CITY           SKY/WX    TMP DP  RH WIND       PRES   REMARKS
CRAIG, CO      CLOUDY    15  10  80 SW3       30.20R
GRAND JUNCTION MOSUNNY   27  21  78 E3        30.22S
RIFLE, CO      CLOUDY    23  15  71 CALM      30.23S
MONTROSE, CO   CLOUDY    27  21  78 S7        30.22S WCI  19
CORTEZ, CO     SUNNY     24  21  88 MISG      30.16R
COLORADO CITY    N/A     30  21  69 CALM      30.24R
PAGE, AZ       SUNNY     33  10  38 SW3       30.22R
GRAND CANYON   SUNNY     30  14  51 NE15G21   30.14R WCI  19
KINGMAN, AZ    SUNNY     36  13  38 NE12      30.17R WCI  28
FLAGSTAFF, AZ  SUNNY     30  17  58 NE15G23   30.09R WCI  19

$$

REGIONAL REPORTS    NEVADA/IDAHO/WYOMING

CITY           SKY/WX    TMP DP  RH WIND       PRES   REMARKS
LAS VEGAS, NV  SUNNY     44   8  23 NE12      30.24R
ELY, NY        MOSUNNY   10   3  73 S10       30.27R WCI  -4
ELKO, NV       PTCLDY    24  15  68 SW6       30.31S WCI  17
POCATELLO, ID  CLOUDY    31  18  58 SW14      30.22S WCI  21
BURLEY, ID     CLOUDY    33  20  58 SW14      30.22R WCI  23
FORT BRIDGER,  PTSUNNY   21  11  65 W10G17    30.18R WCI  10
EVANSTON, WY   CLOUDY    15   9  76 SW9       30.18R WCI   3
ROCK SPRINGS,  CLOUDY    20   9  62 W26G35    30.09F WCI   2

$$



USA.gov is the U.S. government's official web portal to all federal, state and local government web resources and services.